Wind_Speed
15 15 16 15 14 13 12 11 11 11 10 10 10 10 9 9 9 8 8 8 8 7 7 8 8 8 7 7 7 6 6 6 6 6 5 5 5 4 4 4 4 4 4 3 3 3 4 4 4 5 6 7 8 9 10 11 11 11 11 11 10 9 8 9 8 7 8 9 8 9 10 11 11 12 12 12 13 13 13 13 13 13 13 12 12
13 14 16 16 15 14 13 12 11 11 11 10 11 10 9 9 9 9 8 8 8 7 7 8 8 8 7 7 7 6 6 6 6 6 6 5 5 4 4 3 3 3 3 3 3 3 3 4 4 5 6 6 7 7 8 9 10 11 10 10 9 9 8 8 7 7 6 7 8 9 10 11 11 12 13 13 13 14 14 13 13 13 12 12 12
13 13 14 15 16 15 14 13 13 12 12 11 11 11 11 11 10 9 9 8 8 8 7 8 8 7 7 6 6 6 6 6 6 6 6 5 5 4 4 3 3 3 3 3 3 3 3 4 4 5 6 6 6 6 7 7 8 9 9 9 8 8 9 9 8 8 7 7 8 9 11 11 12 12 13 14 14 14 13 12 12 12 11 10 9
14 14 13 14 15 16 15 15 14 13 13 12 12 12 12 12 11 10 10 9 8 8 8 8 7 7 7 6 6 6 6 6 6 6 6 6 5 4 4 4 3 3 3 3 3 3 4 4 5 5 6 6 5 6 6 6 7 7 7 8 8 8 9 10 10 11 11 10 10 11 12 12 12 12 13 13 12 11 11 12 11 10 8 8 9
16 15 14 13 14 15 15 15 15 14 14 13 12 12 12 12 11 11 11 10 9 9 9 9 8 8 7 7 8 7 7 7 7 7 7 6 6 6 5 5 4 4 4 4 4 4 4 5 5 5 5 5 5 5 6 6 6 6 7 7 8 8 9 11 12 13 13 13 12 12 12 12 12 11 12 12 11 11 12 11 9 9 8 9 11
16 16 15 14 14 14 14 14 14 14 14 14 13 13 13 12 12 12 12 11 11 10 10 10 9 9 9 8 9 9 9 9 8 8 8 8 7 7 7 6 6 5 5 5 5 5 5 6 6 6 6 6 6 6 6 6 6 7 7 8 9 9 10 11 12 13 14 14 13 13 12 13 13 12 12 13 13 13 12 9 7 9 10 10 11
17 16 15 15 15 14 14 14 14 13 13 13 13 13 13 13 13 13 12 13 13 12 12 11 10 11 11 10 10 10 10 10 10 10 10 9 9 8 8 8 7 7 7 6 6 6 7 7 7 7 8 8 8 8 7 7 7 7 8 9 11 11 11 11 12 13 14 15 15 15 14 14 14 14 13 12 12 11 10 9 8 9 9 10 10
18 17 16 16 15 15 14 14 14 13 13 13 13 13 14 14 13 13 13 13 13 13 13 12 12 12 12 12 11 11 11 11 11 11 11 11 11 10 9 9 9 9 8 8 7 8 9 9 8 8 9 11 11 10 9 9 8 9 9 10 11 12 11 12 12 13 15 15 15 15 15 14 14 14 12 11 11 10 10 10 11 11 11 11 12
18 18 18 17 16 15 15 15 15 15 14 13 13 13 13 14 15 15 15 15 14 14 14 13 13 13 13 12 12 12 12 11 11 12 12 12 12 11 10 10 10 10 10 9 9 9 10 10 9 9 10 10 10 10 10 10 10 11 11 10 9 10 11 12 13 14 14 14 14 14 14 14 14 14 12 11 12 12 12 12 12 13 14 12 12
20 19 18 18 17 16 16 16 16 16 16 15 14 14 14 14 14 15 16 16 16 16 16 14 14 14 13 12 13 13 13 12 12 13 13 13 12 12 12 12 11 11 11 11 10 11 11 12 11 11 11 10 10 11 12 12 12 12 11 9 9 10 12 13 13 14 15 14 13 14 13 13 13 13 12 12 13 14 14 15 14 14 16 14 11
22 20 20 20 20 19 18 17 17 17 17 16 16 16 16 15 15 15 15 15 15 17 17 17 16 16 15 15 16 16 15 14 13 14 14 13 13 13 13 13 13 13 13 13 12 12 13 13 13 14 14 14 13 13 13 13 13 12 11 11 12 12 13 13 14 15 16 15 14 14 13 13 12 12 13 13 15 16 16 16 16 17 18 18 14
24 23 22 22 21 20 20 19 19 19 19 19 18 18 18 16 16 17 17 15 15 16 17 18 19 19 18 19 19 17 16 16 16 16 15 14 14 14 14 15 15 15 15 14 14 14 14 14 15 16 16 15 14 14 14 14 13 12 12 13 14 14 15 16 16 17 17 16 15 13 13 13 12 13 15 16 16 17 16 17 18 20 21 21 19
24 24 23 21 21 21 21 20 21 21 21 20 19 20 21 21 20 20 19 18 17 17 17 18 19 19 20 20 19 17 16 16 17 16 16 15 15 15 16 17 17 17 17 16 16 17 17 16 17 17 17 16 15 15 15 15 15 15 15 15 15 16 18 18 19 19 19 17 15 14 14 15 15 16 18 18 18 18 18 18 20 22 22 22 21
25 27 25 22 21 22 21 21 23 23 21 20 19 20 21 21 21 20 20 20 20 19 19 19 19 19 20 19 19 18 17 17 16 16 15 15 15 16 17 19 19 19 18 19 19 19 19 19 19 19 19 19 18 18 18 19 19 18 18 17 17 19 20 20 20 20 20 19 18 17 17 18 19 19 20 20 21 21 21 21 21 22 22 22 22
27 28 27 23 22 23 22 21 22 22 22 22 22 22 22 21 21 21 21 21 21 21 21 21 21 21 21 20 20 19 19 18 18 17 16 16 16 16 17 18 19 19 19 20 21 20 20 20 20 20 21 21 20 20 19 20 20 20 20 20 20 20 21 21 21 20 20 20 21 21 21 21 21 21 21 21 21 22 23 23 22 22 23 22 21
29 28 27 25 26 26 26 24 23 22 24 24 24 24 23 22 22 22 22 22 22 23 23 24 24 24 24 24 23 22 21 21 20 20 19 19 18 18 18 19 19 20 21 21 21 20 19 20 20 20 21 21 21 21 21 21 21 21 21 21 22 23 24 23 23 22 22 22 23 23 23 23 22 22 22 21 21 22 23 24 23 22 22 21 19
26 25 26 27 28 29 29 29 27 27 27 26 26 25 24 23 24 25 25 25 26 26 26 26 26 26 26 26 25 25 24 24 23 23 23 23 22 22 22 23 22 23 23 24 23 22 21 21 21 21 21 21 21 22 22 23 23 22 22 23 23 25 26 25 25 25 25 25 25 25 25 24 23 23 23 23 23 23 24 24 23 22 22 20 18
27 27 29 29 28 29 30 29 28 28 29 29 27 27 26 27 27 27 28 29 29 29 29 29 29 28 28 28 27 27 27 26 26 26 26 27 27 26 26 26 26 26 27 27 26 25 24 24 24 24 24 23 23 23 24 24 24 24 25 25 25 26 26 27 27 27 27 27 27 27 27 26 26 25 25 25 25 25 25 24 22 22 21 20 19
29 29 30 29 28 30 31 30 29 29 29 30 29 28 29 30 29 27 28 30 32 31 31 31 30 29 29 29 28 28 28 28 28 29 29 29 30 29 29 29 29 29 29 29 28 27 27 26 26 26 26 26 26 26 26 26 26 26 26 26 26 27 27 27 27 27 26 27 28 29 29 29 28 28 27 26 26 26 25 23 21 21 21 20 20
28 29 29 28 27 28 30 30 29 28 29 30 30 30 31 31 28 26 26 28 30 31 32 32 31 29 28 28 28 27 28 29 30 30 30 31 31 30 30 30 30 29 29 28 28 28 26 25 25 25 25 26 26 26 26 26 26 26 27 27 27 27 26 26 25 25 25 25 26 26 27 27 27 27 26 26 25 24 23 22 22 22 21 21 20
27 28 27 25 24 23 24 24 24 25 26 28 29 31 32 30 27 25 25 27 29 31 32 30 28 27 25 24 24 24 25 28 29 29 29 30 29 28 28 28 28 28 28 27 27 27 24 22 22 22 22 23 23 24 24 24 24 24 25 25 24 24 23 22 22 21 21 21 21 22 22 22 22 22 22 22 22 21 20 21 21 21 21 20 19
25 26 24 23 22 20 20 21 21 22 24 25 27 28 28 26 25 24 23 24 25 27 29 26 22 19 19 20 21 22 23 24 25 24 25 27 26 25 26 25 25 26 25 24 24 22 20 19 18 18 19 20 20 20 19 19 19 19 19 20 20 20 20 20 20 20 20 21 21 21 21 21 20 20 19 19 19 19 19 19 19 19 20 20 19
23 24 23 22 21 19 20 21 21 22 22 23 25 25 24 23 23 21 21 22 24 24 23 21 18 16 17 19 20 21 22 23 23 23 24 24 22 22 23 22 22 21 19 18 17 17 17 16 16 16 17 16 15 15 15 16 17 17 18 19 21 21 22 22 22 22 23 23 23 23 23 23 22 22 21 20 20 21 20 20 20 20 21 21 21
20 21 23 22 20 19 21 22 22 22 23 23 22 20 19 19 16 11 11 15 20 22 21 19 19 20 19 19 20 20 20 21 22 23 23 21 19 18 18 18 18 17 16 15 16 16 16 15 15 14 14 14 14 16 17 18 19 20 21 23 24 25 25 26 26 25 25 25 25 25 26 26 25 25 24 24 24 24 23 23 23 23 24 23 23
18 19 22 23 21 20 20 19 19 19 21 23 20 14 12 14 11 9 9 10 12 15 17 17 18 19 18 17 17 16 16 17 18 19 19 19 18 18 17 17 16 16 16 15 15 15 15 14 13 14 15 16 18 20 21 22 23 24 25 26 27 28 28 28 28 28 28 27 26 27 27 27 27 26 25 26 26 26 25 24 24 25 25 24 24
19 18 19 19 19 19 18 18 18 17 17 21 20 15 14 15 14 14 15 15 15 18 16 13 12 12 13 13 13 12 13 14 14 14 15 16 16 16 15 14 14 14 14 13 13 14 14 14 16 17 19 20 22 24 25 26 27 28 29 30 30 31 30 31 30 30 30 29 27 27 28 27 27 26 26 26 25 25 24 24 24 24 23 23 22
18 16 15 15 16 18 19 19 19 19 18 19 18 16 16 16 15 14 15 17 20 21 16 13 12 12 11 10 11 11 12 12 11 11 12 13 13 13 12 12 13 13 13 13 14 15 17 18 20 21 23 24 26 28 29 29 30 31 32 32 33 32 31 31 31 31 30 29 28 28 28 27 26 26 25 25 24 24 24 23 23 22 21 20 20
15 14 14 14 15 17 20 20 20 20 19 19 19 18 17 17 16 16 16 17 18 18 15 15 14 14 13 13 13 13 13 13 12 13 13 14 14 14 14 14 15 15 16 17 18 19 21 22 24 25 27 28 29 30 31 32 33 34 34 34 33 31 31 31 31 30 29 28 28 28 28 27 27 26 25 24 24 23 23 22 21 21 20 19 19
13 12 12 12 12 13 15 15 16 16 16 15 15 16 14 13 13 13 12 13 13 14 15 15 15 15 15 15 15 15 16 16 16 16 16 17 17 17 18 18 19 19 20 21 22 24 25 26 28 29 29 30 31 32 32 33 34 34 34 33 33 31 30 31 30 29 27 27 27 27 27 27 27 25 24 24 23 22 22 21 20 20 20 20 20
10 10 10 11 11 11 10 10 10 11 12 13 13 12 10 9 9 9 10 10 11 11 13 13 14 15 16 16 16 16 17 17 18 18 19 19 20 21 21 22 23 23 24 25 26 27 28 29 30 31 31 32 32 32 32 32 32 32 32 33 32 31 30 30 29 28 27 26 26 26 26 25 25 24 23 23 22 21 21 21 21 21 21 21 21
8 8 10 11 11 10 9 9 9 9 9 11 11 11 10 10 11 11 12 12 13 13 14 15 15 16 17 18 18 18 18 19 20 21 22 22 23 24 25 25 26 27 27 28 29 29 29 30 31 32 32 33 33 32 31 31 31 31 31 32 32 31 29 28 28 28 27 26 26 26 25 24 23 22 22 22 21 21 21 21 22 22 23 23 23
6 7 9 10 10 9 9 10 10 9 9 10 10 10 11 12 13 14 14 14 15 15 16 17 17 18 18 19 20 20 21 22 22 23 24 25 25 26 26 27 28 28 28 29 29 29 30 30 31 32 33 33 33 32 31 30 30 30 30 30 31 30 29 27 27 27 26 26 26 26 25 24 23 22 22 22 22 22 22 23 23 24 24 25 25
7 7 9 9 8 8 9 11 11 10 10 10 11 11 12 12 13 13 14 15 15 16 16 17 17 18 18 19 20 21 22 23 24 24 25 26 26 26 27 27 28 28 28 29 29 29 30 31 32 32 33 32 32 32 31 30 29 29 28 28 29 29 28 27 28 28 27 26 26 26 26 25 25 24 23 23 23 24 24 25 26 26 27 27 27
10 9 10 10 10 9 10 12 12 12 12 13 13 14 14 14 14 14 15 15 16 16 17 17 17 18 19 19 20 21 22 23 24 25 25 26 26 26 26 26 27 27 27 28 28 29 29 30 31 31 31 31 30 30 30 30 29 28 28 28 28 27 27 27 27 28 27 27 26 26 26 26 26 25 25 25 25 26 27 27 28 28 29 29 29
15 14 14 14 14 13 13 14 14 15 15 15 15 15 16 16 16 16 16 16 16 17 18 18 18 19 19 20 20 20 21 22 23 24 24 25 24 24 25 25 25 25 26 27 27 27 28 28 28 28 28 28 28 28 28 28 28 28 27 27 27 27 27 27 27 27 27 27 27 27 27 27 26 27 27 27 28 29 29 30 30 31 32 32 33
20 19 19 18 19 18 18 17 17 17 17 17 16 16 17 17 17 18 18 19 19 18 18 18 19 19 20 21 21 20 20 21 22 23 23 23 23 23 23 23 24 25 26 27 27 27 28 27 27 26 27 27 27 27 27 27 27 27 27 27 28 28 28 28 27 27 27 28 28 28 29 28 28 28 29 30 31 31 32 33 34 35 35 36 37
25 25 25 25 24 23 21 20 19 18 17 17 17 18 18 18 18 18 19 20 20 20 20 20 20 20 21 21 21 21 21 22 23 23 23 23 24 24 24 24 25 27 27 28 28 28 27 27 27 26 27 27 27 28 28 28 28 28 28 29 29 29 30 30 30 29 29 30 30 30 30 30 30 31 32 33 34 34 35 36 37 37 38 39 39
30 30 31 31 30 29 27 25 22 21 20 19 19 19 19 19 18 18 18 19 20 21 22 22 22 22 21 21 21 21 22 23 24 24 23 23 24 25 26 27 28 29 30 29 29 29 29 28 28 28 28 29 30 30 30 30 30 30 31 31 32 32 32 32 32 32 32 32 32 32 32 33 33 34 35 36 36 37 37 38 39 40 40 41 41
30 31 32 31 31 30 30 28 25 24 23 22 21 20 19 19 19 18 18 18 19 20 22 23 24 24 23 23 22 22 22 23 25 25 24 23 23 25 26 28 30 31 31 31 31 31 30 30 30 30 31 32 32 32 32 32 32 32 32 33 33 34 35 35 35 35 35 34 34 34 34 35 36 36 37 38 38 38 38 39 39 40 41 41 41
31 31 31 29 28 28 28 28 27 26 24 23 21 21 20 20 19 19 19 19 20 21 22 24 24 24 24 23 23 22 22 23 24 25 26 25 24 25 27 29 31 32 32 32 32 31 31 31 30 31 32 33 33 33 33 33 33 32 32 33 34 35 35 36 36 36 35 35 35 35 36 36 37 37 37 38 38 39 39 39 40 40 41 41 41
32 32 31 31 30 30 30 30 29 27 26 24 23 23 23 22 22 21 21 21 22 23 23 24 25 25 25 25 24 24 23 23 23 24 25 26 26 26 28 30 32 33 32 32 32 31 31 30 30 31 31 32 33 33 33 33 33 33 33 33 33 34 35 36 36 35 35 35 35 35 36 37 37 37 38 38 38 38 39 39 40 40 41 41 41
34 32 32 32 32 32 32 31 31 30 28 27 26 26 26 25 25 25 25 24 24 25 25 26 26 26 27 27 27 26 25 24 24 24 25 26 27 28 29 30 32 32 32 32 32 31 30 29 30 30 31 31 32 33 33 34 34 34 33 33 33 34 35 35 36 36 35 35 35 36 36 37 37 38 39 39 39 39 39 39 40 40 41 41 41
33 33 33 33 34 35 35 33 32 32 31 30 29 28 27 27 27 28 28 27 26 27 27 27 28 28 28 29 29 28 28 27 27 27 27 27 28 29 30 30 32 32 32 32 32 32 31 30 29 30 31 31 32 32 33 34 35 35 34 34 34 35 35 36 36 36 36 36 36 37 37 38 38 39 40 40 40 40 40 40 40 41 41 41 42
33 34 35 36 37 38 38 37 36 34 33 33 32 30 28 28 29 29 29 29 29 29 30 30 30 30 30 30 31 31 31 30 30 29 29 30 30 31 31 31 32 33 33 32 32 32 32 31 30 30 31 32 32 33 34 34 35 35 35 35 35 36 36 36 36 36 36 37 37 38 38 39 39 40 40 40 40 40 40 40 40 41 41 41 41
35 35 35 36 37 39 41 42 42 40 38 37 36 33 30 29 30 30 30 31 31 31 31 31 31 32 32 32 32 32 32 32 31 30 30 31 31 32 33 33 33 34 34 33 33 33 32 32 32 32 33 34 34 35 35 35 36 36 36 37 37 37 37 37 37 37 37 37 38 39 39 40 40 40 40 40 40 41 41 41 41 41 40 40 40
33 32 32 32 34 35 36 38 39 38 37 37 37 36 34 33 33 33 33 32 32 32 32 33 33 34 34 33 33 32 32 32 32 31 30 30 31 32 33 34 34 35 35 35 34 34 34 34 34 35 35 36 37 37 37 37 37 38 38 39 39 39 39 38 38 38 38 39 39 40 40 40 40 40 40 41 41 41 41 41 40 40 40 39 39
32 31 30 31 33 34 34 34 34 33 32 33 32 30 29 29 30 30 31 31 31 32 33 34 34 34 33 33 33 33 33 33 32 31 31 31 32 32 33 34 35 35 35 35 35 35 35 36 36 37 37 38 38 38 38 38 38 39 39 40 40 40 40 39 39 39 40 40 41 41 41 41 41 41 41 41 41 41 40 40 40 39 39 39 39
29 29 29 30 33 35 35 34 33 31 31 31 30 28 26 26 27 29 31 32 32 32 32 31 30 30 31 32 33 33 33 33 32 32 32 33 34 34 33 33 34 35 35 36 36 36 36 37 37 38 38 38 38 38 38 39 39 39 39 39 39 39 39 39 39 40 40 41 41 41 41 41 41 41 40 40 40 40 39 39 39 39 39 40 40
27 28 29 30 31 32 32 33 34 34 34 34 33 31 29 29 31 32 33 33 33 33 31 29 28 28 29 31 32 32 32 32 33 33 34 35 34 34 34 34 34 35 35 36 36 36 36 37 38 38 38 38 38 38 38 38 38 38 38 38 38 38 38 38 39 39 40 40 40 40 40 39 39 39 39 38 38 38 38 38 38 39 40 41 41
27 28 29 30 31 31 32 34 35 34 34 34 32 30 29 31 32 33 33 33 32 32 30 29 28 28 28 29 30 30 31 31 33 34 35 35 35 35 34 35 35 36 36 36 35 35 36 37 37 37 37 37 37 38 38 38 38 38 38 38 38 38 37 37 38 38 38 38 38 38 37 37 37 37 37 36 37 37 37 38 39 39 40 41 42
30 30 30 30 31 31 33 34 34 32 30 30 30 29 30 31 31 31 32 31 31 31 31 31 30 30 30 29 29 29 30 31 32 33 34 35 35 35 34 34 35 36 36 36 35 35 35 36 37 37 37 37 37 38 38 38 38 38 38 38 38 37 37 37 36 36 36 36 36 36 36 35 35 35 35 35 36 37 37 38 39 40 41 42 44
Wind_Direction
205 206 206 206 206 205 205 204 202 201 199 196 195 196 196 196 195 193 186 184 191 194 198 199 195 195 197 198 200 205 208 210 212 213 213 219 225 226 231 230 225 229 230 229 241 249 250 253 256 259 262 261 265 271 279 287 294 298 301 301 305 313 317 317 319 319 319 319 318 313 309 307 309 309 310 312 315 315 314 319 328 333 336 341 343
207 208 207 206 207 208 207 205 203 202 203 202 198 197 197 196 197 196 190 187 187 188 194 198 196 197 199 198 198 203 207 210 214 215 217 220 221 226 237 238 236 243 247 244 243 246 250 254 255 260 264 265 266 271 276 283 289 292 298 303 307 312 313 314 314 316 322 321 315 309 306 306 308 310 311 313 313 310 311 322 333 336 337 339 341
207 210 208 204 205 207 208 206 205 205 205 207 206 204 200 198 202 202 197 196 194 192 193 194 195 199 200 197 196 202 208 211 217 220 221 223 223 223 228 231 234 238 245 250 250 246 245 249 255 258 262 264 265 268 271 275 281 290 297 301 305 312 314 318 319 317 317 314 310 307 307 309 309 310 311 309 307 304 310 325 333 333 332 334 342
207 209 208 204 204 207 209 207 207 207 208 209 211 212 208 205 207 208 207 206 205 203 201 198 199 200 198 198 200 204 211 214 218 222 224 226 229 231 230 230 233 239 249 256 256 251 244 246 252 256 261 262 260 264 271 273 276 283 289 292 300 308 310 314 314 312 312 312 311 310 308 307 307 308 306 302 302 308 317 327 329 324 327 341 349
210 209 209 207 206 208 211 210 209 209 210 212 214 216 216 214 214 214 216 217 215 215 214 209 208 207 205 207 208 208 213 216 220 225 228 228 229 232 234 233 233 238 248 255 258 256 252 252 257 260 265 267 265 264 267 270 272 274 277 284 294 301 304 306 306 307 310 309 306 304 303 305 310 313 310 307 314 320 318 320 321 321 334 351 350
213 211 210 208 208 211 213 214 213 212 213 214 215 218 220 220 220 219 220 221 220 222 224 223 219 217 216 218 222 222 221 221 224 228 232 234 233 234 237 234 233 236 244 252 256 253 254 258 262 266 267 266 265 262 261 266 274 278 282 289 296 300 302 303 303 304 305 304 305 307 311 317 321 323 321 318 319 317 313 322 337 337 342 349 346
214 212 213 212 211 213 216 216 216 215 216 217 218 220 222 221 223 225 226 225 224 224 226 227 225 227 226 225 228 232 232 230 231 233 235 238 239 240 242 242 239 238 242 249 252 252 254 258 263 268 267 262 259 255 254 257 264 273 287 294 297 300 301 300 301 303 305 308 312 314 319 325 326 326 325 319 318 320 325 343 355 348 348 350 346
217 212 214 216 214 214 216 218 218 218 218 219 221 224 225 223 222 226 230 230 230 229 230 229 229 232 235 234 234 236 238 238 238 242 243 243 244 244 245 247 246 244 244 246 249 252 255 257 260 262 259 254 252 251 252 254 259 271 284 291 295 301 304 306 307 307 307 309 310 313 320 328 328 327 328 328 335 344 345 347 346 343 349 356 348
222 217 217 220 219 218 219 219 220 222 222 221 224 229 233 231 226 226 230 233 233 233 235 236 234 233 234 239 243 242 241 241 241 243 245 246 247 245 244 246 248 249 249 248 249 253 258 262 265 267 266 260 251 245 245 249 258 271 280 284 290 298 303 306 306 305 304 304 307 313 322 327 325 324 328 336 345 348 341 336 336 337 342 349 346
222 221 222 222 220 219 221 222 222 225 225 223 224 228 236 240 236 232 231 231 233 235 237 237 238 236 232 236 244 243 241 242 243 243 243 244 245 243 242 245 247 248 251 252 253 256 261 266 269 272 273 265 253 247 249 254 263 271 275 279 288 295 299 302 302 301 302 305 309 315 320 321 318 319 327 336 337 332 327 325 327 330 333 336 337
216 219 224 226 224 221 222 224 225 227 228 225 223 226 234 243 247 243 236 229 226 231 236 236 236 237 235 235 241 244 244 244 244 245 244 244 246 248 248 249 248 248 250 252 253 255 258 261 265 269 270 268 268 272 275 276 277 277 278 284 292 295 297 299 300 300 301 305 310 314 314 313 311 314 321 325 322 319 319 320 323 325 327 326 327
217 218 224 229 231 229 227 227 227 227 227 224 220 220 224 231 237 241 240 233 223 224 233 237 237 237 237 238 240 244 248 249 248 249 250 250 252 253 253 253 252 252 252 253 254 254 255 257 260 266 269 272 277 283 285 286 286 285 283 285 289 292 295 296 297 296 297 301 306 307 305 304 305 308 311 311 309 309 312 316 319 321 322 321 320
225 222 224 229 233 235 234 232 231 230 229 229 227 223 222 224 228 235 241 243 237 231 234 240 244 245 245 246 247 246 248 249 250 252 254 255 255 251 250 252 254 255 255 256 256 256 257 259 262 266 270 273 275 277 279 279 279 277 276 277 280 284 288 291 293 294 297 300 302 302 299 298 300 303 304 303 303 304 306 309 313 315 316 315 314
233 225 223 226 233 237 238 237 236 234 232 234 237 237 234 231 232 236 240 245 247 245 243 243 246 249 250 252 254 253 252 252 253 253 253 254 255 253 251 252 253 255 256 256 256 257 259 262 264 267 270 272 274 275 275 275 275 274 275 274 274 276 279 283 287 291 295 297 298 298 296 293 294 297 298 299 301 303 304 306 308 308 309 310 311
236 226 223 226 234 241 244 245 244 240 235 236 238 241 242 241 242 242 242 247 252 255 255 252 249 250 251 252 254 256 255 255 256 257 257 257 257 257 256 255 255 258 258 256 257 258 262 264 265 267 269 271 272 271 271 272 274 278 281 281 279 279 279 279 281 284 287 289 292 294 292 289 288 289 290 294 299 302 303 306 308 306 307 310 312
231 227 225 225 231 239 244 248 250 246 241 239 239 241 244 246 248 246 244 247 252 256 258 257 255 253 251 251 253 255 257 257 257 259 259 259 259 260 260 258 258 260 261 262 262 261 263 266 267 268 269 270 270 271 270 271 273 276 280 283 283 283 282 281 281 282 283 284 287 290 291 288 286 284 285 288 294 298 301 304 305 303 305 308 310
235 235 236 234 234 239 244 247 248 246 244 245 245 247 248 247 246 246 247 250 253 255 257 258 258 256 254 253 252 253 255 258 259 261 262 262 263 264 266 264 262 260 260 261 264 265 266 268 270 271 271 270 269 270 271 273 273 274 276 278 279 280 279 279 280 282 283 284 286 288 288 287 285 285 286 289 293 297 299 300 301 301 302 304 306
248 247 249 248 245 245 246 245 245 243 243 245 246 248 250 248 248 250 253 256 256 257 258 260 260 258 255 254 253 252 252 253 256 259 260 262 264 265 267 267 265 262 258 259 263 266 267 269 270 272 272 271 270 271 272 273 273 273 275 277 278 277 276 278 279 280 282 284 285 286 286 286 286 286 287 290 294 296 297 298 300 300 300 300 301
249 248 250 250 250 253 254 251 247 245 244 244 244 247 250 251 252 256 259 260 258 259 261 262 263 262 257 254 252 251 250 252 255 257 257 258 260 262 263 264 265 264 261 259 260 261 263 267 269 271 271 271 271 273 274 274 273 272 273 275 276 277 279 280 280 280 281 283 283 284 284 285 285 285 286 289 292 294 295 296 296 295 295 296 296
249 249 250 252 255 261 262 256 249 247 249 249 249 251 252 251 251 254 259 260 260 260 262 262 259 258 256 253 251 249 248 250 254 256 255 255 256 258 261 262 263 263 261 259 257 256 259 264 268 270 272 273 273 274 274 274 272 270 272 274 277 279 280 281 280 280 280 282 282 284 284 284 283 283 284 287 290 291 292 293 293 294 294 295 295
250 251 253 256 258 260 260 257 253 254 259 259 255 253 253 252 251 251 255 258 259 259 259 258 255 251 249 248 247 247 246 249 252 252 250 251 253 256 259 261 262 261 259 257 256 256 259 264 268 272 274 273 273 273 273 273 272 272 273 276 277 279 279 279 280 281 282 283 285 287 289 289 288 286 287 288 288 288 288 290 293 295 295 296 297
250 252 254 258 259 257 259 261 260 261 266 266 261 257 255 253 251 250 251 252 251 251 250 249 245 240 236 236 238 240 240 242 244 243 244 249 254 257 258 260 263 262 258 254 254 257 262 266 269 271 271 270 270 271 272 273 274 275 276 277 277 278 279 281 283 283 284 285 287 290 292 292 291 291 290 289 287 287 287 288 291 293 294 296 299
249 250 253 257 259 259 261 263 263 264 267 268 265 262 258 252 247 247 247 242 236 235 239 237 224 212 216 226 231 234 235 236 237 240 244 250 255 257 257 261 264 263 257 253 256 262 266 265 263 263 263 264 267 269 271 273 275 277 279 280 281 282 283 284 285 285 286 286 287 289 289 289 289 289 288 288 287 286 287 289 291 292 292 294 296
248 247 248 250 254 260 261 261 263 263 263 264 263 257 252 247 240 238 247 243 229 219 215 211 205 204 213 222 226 228 232 234 237 242 245 247 251 253 254 256 258 258 257 257 259 260 258 254 252 255 258 261 265 269 273 276 278 280 282 282 283 285 285 286 286 286 287 287 288 289 288 287 286 286 287 286 285 285 288 290 290 290 290 291 293
248 245 245 245 248 255 256 254 256 258 259 259 256 247 246 254 255 249 250 250 241 229 214 204 204 207 210 216 221 225 232 237 240 241 241 242 244 245 245 244 245 247 249 249 248 247 246 247 251 257 262 266 270 273 275 278 280 281 282 283 284 285 286 287 288 289 289 288 288 287 286 285 285 285 284 283 283 284 286 287 286 287 288 290 292
251 249 248 245 243 245 247 247 251 258 262 259 254 252 261 268 268 259 247 238 244 249 236 218 216 215 211 217 224 220 222 230 233 231 230 231 234 236 236 235 236 238 238 238 239 242 247 254 259 264 268 271 273 275 277 279 281 282 283 283 284 285 288 289 290 290 290 289 289 287 285 284 284 284 284 283 284 285 285 284 284 285 287 288 290
256 254 248 242 237 238 242 245 250 259 265 259 252 253 263 265 262 259 248 236 240 243 228 208 216 223 218 222 227 217 213 219 221 217 217 220 223 228 230 231 236 240 242 245 249 252 257 261 264 267 270 272 274 276 277 280 281 281 282 283 284 287 289 289 289 288 288 289 288 286 285 285 285 284 284 285 285 285 284 284 284 285 285 286 287
262 263 253 244 240 242 247 250 254 260 262 259 252 251 255 256 254 252 246 239 240 236 213 195 202 212 211 210 211 210 211 216 220 223 226 228 231 235 238 241 245 249 252 256 258 260 262 264 265 267 269 271 273 275 277 279 280 281 283 285 286 288 288 287 286 286 287 287 286 284 284 285 285 285 285 285 284 283 282 282 282 282 282 282 283
259 263 261 254 246 247 251 254 257 259 257 254 250 247 245 242 240 239 237 233 229 220 208 202 204 210 216 215 213 214 217 220 225 231 235 238 242 244 247 249 251 254 258 261 262 264 265 267 268 270 271 272 273 275 277 279 281 283 285 286 286 286 285 284 283 283 283 283 282 281 282 282 282 283 283 281 280 280 280 279 278 278 279 279 280
253 255 259 257 253 252 252 249 248 251 252 250 245 236 224 219 222 224 224 225 224 219 219 221 221 222 225 226 225 227 229 231 234 238 240 243 246 249 251 253 255 257 259 260 262 264 266 268 270 271 272 273 274 275 277 279 281 282 283 283 283 283 282 282 283 284 284 283 281 279 278 278 278 278 277 276 276 276 276 276 276 276 278 279 281
242 246 250 253 255 257 257 253 248 246 249 254 253 242 226 221 226 229 227 227 230 230 231 233 235 236 237 238 238 239 240 241 243 245 247 249 252 253 255 257 258 260 262 263 265 266 267 268 270 271 272 273 274 275 276 277 278 279 280 281 282 283 283 283 283 283 283 282 280 279 278 276 275 274 273 272 272 272 273 274 275 277 278 279 280
236 244 250 255 260 265 269 269 267 263 259 261 263 258 245 237 237 237 237 236 238 238 239 240 241 243 246 248 249 250 251 252 252 253 255 257 258 259 261 262 263 265 266 267 269 269 270 271 271 272 273 273 274 275 276 276 277 278 279 280 282 283 284 284 283 281 280 279 278 278 277 276 274 272 272 272 273 273 275 276 277 278 279 280 281
239 249 258 263 267 273 278 280 282 283 278 272 268 266 262 257 253 251 250 250 249 249 249 248 248 250 252 253 255 256 258 259 259 260 261 262 263 264 265 266 267 268 269 269 270 271 271 271 272 273 274 274 275 277 278 279 280 280 280 280 280 281 282 282 281 280 279 277 275 275 275 274 274 273 274 275 277 278 278 279 279 280 281 283 285
247 255 264 269 273 280 286 290 293 292 286 281 278 276 274 273 270 267 266 265 263 263 262 260 259 259 258 258 259 260 261 262 263 263 264 265 266 267 268 268 268 269 269 269 269 269 269 270 271 273 274 276 277 278 279 279 280 281 282 281 281 280 281 280 280 280 279 277 276 275 274 274 275 276 278 278 279 279 280 281 282 283 283 283 283
255 258 263 267 272 276 281 286 289 288 286 284 283 282 281 279 277 276 275 271 269 267 267 266 266 265 264 263 263 262 263 264 265 266 267 267 268 268 269 269 269 268 268 267 267 267 268 269 271 273 275 276 277 278 279 280 280 281 282 283 282 282 281 280 279 279 279 279 278 277 277 278 279 280 281 281 282 282 283 283 283 282 281 281 280
257 260 264 268 272 276 278 278 277 277 280 281 282 281 281 280 279 278 277 275 273 270 268 266 265 265 265 265 266 266 266 266 267 267 268 269 269 269 269 269 268 267 267 267 268 268 270 271 273 275 277 278 279 280 280 280 280 280 281 281 282 282 282 281 280 280 280 279 279 279 280 281 282 283 283 283 282 282 282 281 280 280 280 280 281
259 262 263 264 268 274 276 273 269 268 271 274 276 278 279 280 281 280 279 278 277 275 273 271 268 265 264 265 266 266 266 266 267 267 268 269 269 270 270 270 270 269 270 270 271 273 274 275 276 278 279 280 280 280 280 280 280 280 281 281 281 281 281 281 281 281 280 280 280 281 282 283 283 283 282 281 280 280 279 280 280 280 281 282 283
263 264 265 265 267 270 272 272 271 271 271 271 272 273 275 277 279 281 283 284 283 281 279 277 274 272 271 269 268 268 267 267 267 267 268 269 270 270 270 270 271 271 272 274 275 276 277 279 280 281 281 281 280 280 280 280 281 281 282 282 282 282 282 281 281 281 281 281 282 283 283 283 282 281 280 280 280 280 281 281 281 282 282 283 284
264 265 267 269 269 269 269 270 270 271 271 272 272 272 272 273 275 278 281 283 284 284 283 281 279 278 278 277 277 275 275 274 273 272 271 271 272 273 273 272 272 272 273 275 277 278 279 281 282 282 281 281 281 281 281 281 281 282 282 282 282 282 281 281 282 282 282 283 283 283 283 282 281 281 281 281 281 281 282 282 282 283 283 284 285
266 266 267 268 269 269 268 268 268 268 268 269 270 271 273 272 273 275 277 278 279 280 279 279 280 281 282 282 281 280 279 279 279 278 277 276 276 276 276 274 273 274 275 276 278 279 280 281 280 280 279 280 280 280 280 280 280 280 280 280 281 280 280 280 280 281 282 283 283 283 282 282 282 282 282 282 282 282 283 283 283 283 284 284 285
267 267 268 268 269 269 268 268 267 266 264 264 266 268 269 270 272 273 273 275 277 278 277 278 279 280 280 280 279 278 278 280 282 282 281 280 279 278 277 276 276 277 277 278 278 279 280 280 279 278 278 278 279 279 280 280 279 279 278 278 279 280 280 281 281 282 283 283 283 282 282 282 282 282 281 281 282 282 283 284 284 284 284 285 285
264 265 266 268 269 269 269 268 266 264 263 263 264 266 268 270 273 274 274 274 276 277 279 281 283 283 283 281 280 279 279 280 281 281 281 282 281 279 278 277 277 278 278 278 279 279 279 279 279 279 279 279 279 280 280 280 280 279 279 279 280 280 281 282 282 283 283 283 283 283 282 282 282 282 282 283 283 283 283 284 284 285 285 286 286
262 262 263 264 266 267 267 266 264 262 262 261 261 262 265 268 271 273 273 274 276 277 278 279 281 283 284 283 282 281 279 278 277 277 279 281 282 281 279 277 276 276 276 277 277 278 278 278 278 278 278 278 278 277 278 278 279 280 281 281 281 281 281 282 283 284 284 285 284 284 283 282 282 283 283 284 285 285 285 285 285 285 286 286 286
265 264 264 265 265 265 265 265 264 263 263 263 264 265 267 268 270 272 274 276 277 278 278 279 280 282 283 283 283 282 279 277 276 275 276 278 279 280 280 279 278 277 277 276 276 277 278 278 279 278 278 278 278 277 277 277 278 279 280 280 280 280 280 281 282 283 284 284 284 284 283 283 283 283 284 285 285 285 285 286 285 285 285 285 285
266 266 267 268 268 268 267 266 263 262 264 268 270 271 272 272 273 274 275 275 275 276 277 279 281 282 283 283 283 282 281 279 277 275 274 275 277 280 281 280 279 279 279 279 279 279 280 280 280 279 279 278 278 278 279 279 279 280 280 280 280 280 281 282 282 283 283 283 283 282 282 282 283 283 284 284 285 285 285 285 285 285 285 284 284
265 266 266 268 270 271 270 268 265 265 271 277 277 275 273 273 273 273 273 273 274 275 277 279 281 282 283 284 283 282 281 281 281 280 279 278 279 280 279 279 279 280 280 281 282 282 282 282 281 280 279 278 278 278 279 279 280 280 280 281 281 282 282 283 283 283 282 282 281 281 281 282 283 284 284 284 284 284 285 285 285 285 284 284 284
263 264 265 267 267 268 268 268 266 267 272 277 278 275 273 272 271 270 271 272 274 275 277 278 280 281 282 281 279 278 277 279 281 283 283 281 280 279 279 279 281 282 282 283 282 282 282 281 280 279 279 278 278 279 279 279 278 279 279 280 281 282 282 283 283 283 282 281 281 281 282 283 283 284 284 284 284 284 284 284 285 284 284 285 285
263 263 264 265 263 260 259 260 261 262 266 271 272 271 271 272 272 272 273 275 275 276 277 278 280 281 280 278 276 275 275 277 278 279 279 278 279 280 281 282 283 283 283 283 282 282 281 280 279 279 279 279 279 280 280 279 279 279 279 279 280 281 281 282 282 281 281 281 281 282 283 283 283 283 284 284 284 284 284 284 284 285 285 286 287
264 262 262 263 263 260 257 258 260 261 262 264 265 265 265 267 269 272 274 275 276 276 276 276 277 277 276 276 276 276 276 276 276 276 276 278 279 282 283 284 284 283 282 282 282 282 281 281 280 280 280 280 280 280 280 280 280 280 280 281 281 281 282 281 281 281 281 282 282 283 283 283 283 283 283 283 283 284 284 285 285 286 287 288 288
264 263 262 263 265 266 264 265 266 265 262 261 261 261 261 262 264 266 269 271 274 276 277 276 275 274 274 276 277 276 275 274 274 275 277 279 281 283 284 284 283 282 282 281 282 282 281 281 281 281 281 281 281 280 280 281 281 281 281 282 282 283 282 282 282 282 282 282 282 282 282 282 282 282 282 283 283 283 284 285 286 287 288 289 290
261 262 265 268 269 269 267 267 269 269 266 263 263 262 262 263 265 267 269 271 274 276 276 276 275 275 277 278 279 278 277 276 277 278 280 282 284 285 285 285 284 283 283 282 282 282 282 282 282 282 281 281 281 281 281 281 281 281 282 282 282 282 282 282 281 281 281 281 281 281 281 281 281 281 282 282 283 284 285 287 288 290 291 292 293
Height
3228 3230 3231 3232 3234 3235 3236 3237 3238 3239 3240 3241 3243 3244 3245 3246 3247 3248 3249 3249 3250 3251 3252 3253 3254 3254 3255 3256 3256 3257 3258 3258 3259 3260 3260 3261 3261 3262 3262 3263 3263 3263 3263 3263 3263 3264 3264 3264 3264 3264 3264 3264 3264 3264 3264 3264 3264 3265 3265 3264 3264 3263 3263 3262 3262 3261 3261 3260 3259 3258 3257 3256 3256 3255 3254 3253 3251 3250 3250 3249 3247 3246 3245 3244 3242
3227 3229 3230 3231 3232 3234 3235 3237 3238 3239 3240 3241 3242 3243 3245 3246 3247 3247 3248 3249 3250 3250 3251 3252 3253 3254 3254 3255 3256 3257 3257 3258 3259 3259 3260 3260 3261 3261 3261 3262 3262 3262 3263 3263 3263 3263 3263 3263 3263 3263 3263 3263 3263 3263 3263 3263 3263 3263 3263 3263 3263 3262 3262 3261 3261 3260 3260 3259 3258 3257 3256 3255 3254 3253 3252 3251 3250 3249 3248 3247 3246 3245 3244 3243 3242
3227 3228 3229 3230 3231 3233 3234 3236 3237 3238 3239 3241 3242 3243 3244 3245 3246 3247 3247 3248 3249 3250 3250 3251 3252 3253 3254 3255 3255 3256 3257 3257 3258 3259 3259 3260 3260 3260 3261 3261 3261 3262 3262 3262 3262 3262 3262 3262 3262 3262 3262 3262 3262 3262 3262 3262 3262 3262 3262 3262 3261 3261 3260 3260 3259 3258 3258 3258 3257 3256 3255 3254 3253 3252 3251 3249 3248 3247 3246 3245 3244 3243 3242 3241 3240
3226 3227 3228 3230 3231 3232 3233 3235 3236 3238 3239 3240 3241 3242 3243 3244 3245 3246 3247 3247 3248 3249 3249 3250 3251 3252 3253 3254 3254 3255 3256 3256 3257 3258 3258 3259 3259 3260 3260 3260 3261 3261 3261 3261 3261 3262 3262 3261 3261 3261 3261 3261 3261 3261 3261 3261 3261 3261 3260 3260 3260 3259 3259 3258 3258 3257 3257 3256 3255 3254 3253 3253 3252 3251 3249 3248 3247 3246 3245 3244 3243 3242 3241 3240 3239
3225 3226 3227 3229 3230 3231 3232 3234 3235 3236 3238 3239 3240 3241 3242 3243 3244 3245 3245 3246 3247 3248 3249 3249 3250 3251 3252 3252 3253 3254 3255 3255 3256 3257 3257 3258 3258 3259 3259 3259 3260 3260 3260 3261 3261 3261 3261 3261 3261 3261 3260 3260 3260 3260 3260 3260 3260 3260 3259 3259 3258 3258 3258 3257 3257 3256 3255 3255 3254 3253 3252 3251 3251 3250 3248 3246 3245 3244 3243 3243 3241 3240 3239 3239 3238
3224 3225 3227 3228 3229 3230 3232 3233 3234 3235 3237 3238 3239 3240 3241 3242 3243 3244 3244 3245 3246 3247 3248 3248 3249 3250 3250 3251 3252 3252 3253 3254 3254 3255 3256 3256 3257 3257 3258 3258 3259 3259 3259 3259 3259 3260 3260 3260 3260 3260 3259 3259 3259 3259 3259 3259 3259 3258 3258 3257 3257 3257 3257 3256 3255 3255 3254 3253 3252 3252 3251 3250 3249 3248 3246 3245 3244 3243 3242 3241 3240 3239 3238 3238 3237
3223 3225 3226 3227 3228 3230 3231 3232 3233 3235 3236 3237 3238 3239 3240 3241 3242 3242 3243 3244 3245 3245 3246 3247 3247 3248 3249 3249 3250 3251 3251 3252 3253 3253 3254 3255 3255 3256 3256 3257 3257 3258 3258 3258 3258 3258 3258 3258 3258 3258 3258 3258 3258 3257 3257 3257 3257 3257 3257 3256 3256 3256 3256 3255 3254 3253 3252 3251 3251 3250 3249 3248 3247 3246 3245 3244 3242 3241 3240 3239 3239 3238 3237 3236 3235
3222 3224 3225 3226 3228 3229 3230 3231 3232 3233 3234 3236 3236 3237 3238 3239 3240 3240 3241 3242 3243 3244 3244 3245 3246 3246 3247 3247 3248 3249 3250 3251 3251 3252 3253 3253 3254 3254 3255 3255 3256 3256 3257 3257 3257 3257 3257 3257 3257 3257 3257 3256 3256 3256 3256 3256 3255 3255 3255 3255 3254 3254 3254 3253 3253 3252 3251 3250 3249 3248 3247 3247 3246 3245 3244 3243 3241 3240 3239 3238 3237 3236 3236 3235 3234
3221 3223 3224 3226 3227 3228 3229 3230 3231 3232 3233 3234 3235 3235 3236 3237 3238 3239 3239 3240 3241 3242 3242 3243 3244 3245 3246 3245 3246 3247 3248 3249 3249 3250 3251 3251 3252 3252 3253 3253 3254 3255 3255 3255 3255 3255 3255 3255 3255 3255 3255 3255 3255 3255 3254 3254 3254 3254 3254 3253 3253 3252 3252 3251 3251 3250 3249 3248 3247 3247 3246 3245 3244 3243 3243 3241 3240 3239 3238 3236 3236 3235 3234 3234 3233
3218 3220 3223 3224 3226 3227 3228 3228 3229 3230 3231 3232 3233 3234 3234 3235 3236 3237 3238 3239 3239 3240 3240 3241 3242 3243 3244 3244 3244 3245 3246 3247 3247 3248 3249 3249 3250 3250 3251 3251 3252 3252 3253 3253 3253 3253 3254 3253 3253 3253 3253 3253 3253 3253 3253 3253 3253 3253 3252 3252 3251 3251 3250 3249 3249 3248 3246 3246 3246 3245 3245 3244 3243 3242 3241 3240 3239 3238 3236 3235 3234 3233 3232 3232 3231
3214 3217 3220 3222 3223 3225 3225 3226 3227 3228 3228 3230 3231 3231 3232 3233 3233 3234 3235 3237 3237 3237 3238 3239 3240 3240 3241 3241 3242 3242 3244 3245 3246 3246 3247 3247 3248 3248 3249 3249 3250 3250 3251 3251 3251 3251 3251 3251 3251 3251 3251 3250 3251 3251 3251 3251 3251 3251 3250 3250 3250 3249 3248 3247 3247 3246 3245 3244 3244 3244 3243 3242 3241 3240 3239 3238 3237 3236 3235 3233 3232 3231 3230 3229 3228
3212 3213 3216 3219 3221 3222 3223 3224 3224 3224 3225 3226 3227 3228 3229 3230 3231 3232 3233 3234 3235 3236 3236 3236 3236 3237 3238 3238 3239 3240 3242 3243 3244 3245 3245 3246 3246 3247 3247 3247 3247 3248 3248 3248 3249 3249 3249 3249 3249 3249 3249 3249 3249 3250 3250 3249 3249 3249 3248 3248 3248 3247 3246 3246 3245 3244 3244 3243 3243 3242 3241 3240 3239 3238 3237 3236 3235 3234 3233 3232 3230 3229 3228 3226 3225
3211 3211 3213 3216 3218 3219 3221 3221 3221 3221 3222 3223 3224 3225 3225 3226 3227 3229 3231 3232 3233 3234 3234 3235 3235 3235 3235 3236 3237 3238 3240 3241 3242 3243 3244 3244 3245 3245 3245 3245 3245 3246 3246 3246 3246 3246 3246 3247 3247 3247 3247 3247 3247 3247 3247 3247 3247 3247 3246 3246 3245 3244 3244 3243 3243 3242 3242 3241 3240 3240 3239 3238 3237 3236 3235 3233 3232 3231 3230 3229 3228 3226 3225 3224 3223
3208 3208 3209 3211 3214 3215 3217 3218 3218 3219 3220 3221 3222 3223 3223 3224 3226 3227 3229 3230 3231 3232 3233 3233 3233 3233 3234 3234 3235 3236 3237 3238 3239 3240 3241 3242 3242 3242 3242 3242 3242 3243 3243 3243 3243 3243 3244 3245 3245 3245 3245 3245 3245 3245 3245 3245 3244 3244 3244 3244 3243 3242 3241 3241 3240 3240 3239 3239 3238 3237 3236 3235 3234 3233 3232 3231 3230 3229 3227 3226 3225 3224 3222 3221 3220
3203 3204 3204 3205 3209 3211 3212 3214 3215 3216 3217 3217 3218 3219 3221 3223 3225 3225 3225 3226 3228 3229 3230 3231 3231 3232 3232 3232 3233 3233 3234 3235 3236 3237 3237 3238 3239 3239 3240 3240 3240 3240 3240 3240 3240 3241 3242 3242 3242 3243 3242 3242 3242 3242 3242 3242 3241 3241 3241 3241 3240 3239 3238 3238 3237 3237 3237 3236 3235 3235 3234 3232 3231 3230 3229 3228 3227 3226 3224 3223 3222 3221 3219 3218 3217
3199 3200 3198 3198 3203 3207 3208 3209 3211 3212 3212 3213 3214 3215 3218 3220 3222 3222 3222 3224 3225 3226 3227 3227 3229 3229 3229 3230 3230 3231 3231 3232 3233 3234 3234 3235 3236 3236 3237 3237 3237 3237 3237 3237 3237 3238 3239 3239 3239 3239 3239 3239 3239 3239 3239 3239 3239 3239 3238 3238 3237 3236 3235 3235 3234 3234 3234 3233 3232 3232 3231 3229 3228 3227 3226 3225 3225 3224 3222 3220 3219 3218 3216 3215 3214
3199 3200 3196 3195 3199 3203 3203 3204 3205 3205 3207 3208 3209 3211 3213 3216 3217 3218 3219 3221 3222 3223 3224 3224 3225 3226 3226 3227 3227 3228 3229 3229 3230 3231 3231 3232 3232 3233 3233 3234 3234 3234 3234 3234 3234 3235 3236 3236 3236 3236 3236 3236 3236 3236 3236 3236 3235 3235 3235 3235 3234 3233 3232 3232 3231 3231 3230 3230 3229 3228 3227 3226 3225 3224 3223 3222 3221 3220 3218 3217 3216 3215 3213 3213 3212
3197 3199 3197 3195 3197 3199 3198 3198 3199 3200 3201 3202 3204 3206 3208 3210 3212 3214 3216 3217 3219 3220 3221 3221 3222 3222 3223 3223 3224 3225 3225 3226 3227 3227 3228 3228 3228 3229 3229 3229 3230 3230 3230 3231 3231 3232 3232 3233 3233 3233 3233 3233 3233 3233 3233 3233 3232 3232 3232 3231 3231 3230 3229 3229 3228 3227 3227 3226 3225 3224 3223 3223 3222 3221 3220 3219 3218 3216 3215 3214 3214 3212 3211 3210 3209
3193 3194 3194 3195 3195 3195 3193 3193 3194 3196 3197 3198 3200 3201 3202 3204 3208 3211 3212 3213 3214 3215 3217 3217 3217 3218 3218 3219 3220 3221 3221 3222 3223 3224 3224 3224 3224 3224 3225 3225 3226 3226 3226 3227 3227 3228 3229 3229 3230 3230 3230 3230 3230 3230 3229 3229 3229 3228 3228 3227 3227 3226 3226 3225 3225 3224 3224 3223 3222 3221 3220 3219 3218 3217 3217 3216 3215 3213 3212 3211 3210 3209 3208 3207 3206
3188 3189 3190 3192 3193 3192 3190 3190 3191 3192 3194 3195 3197 3198 3199 3201 3205 3207 3208 3208 3209 3210 3210 3211 3212 3213 3213 3214 3215 3216 3217 3218 3219 3219 3220 3220 3220 3220 3221 3221 3221 3222 3222 3222 3222 3223 3225 3226 3226 3226 3226 3226 3227 3226 3226 3225 3225 3224 3224 3224 3223 3223 3222 3222 3221 3221 3220 3220 3218 3217 3216 3215 3214 3213 3213 3213 3211 3210 3209 3208 3207 3206 3205 3205 3204
3185 3185 3187 3189 3190 3189 3187 3187 3188 3189 3190 3191 3193 3195 3196 3199 3202 3203 3204 3204 3204 3205 3204 3204 3206 3208 3209 3210 3211 3212 3213 3214 3214 3215 3215 3215 3215 3217 3218 3217 3217 3217 3218 3218 3218 3219 3222 3223 3223 3223 3223 3223 3223 3222 3222 3222 3221 3221 3221 3220 3220 3219 3219 3218 3218 3217 3217 3216 3215 3214 3213 3212 3211 3210 3210 3209 3208 3207 3206 3204 3204 3203 3202 3202 3201
3182 3183 3183 3185 3186 3186 3186 3186 3186 3186 3186 3187 3188 3190 3192 3195 3197 3198 3199 3200 3200 3200 3200 3201 3202 3204 3205 3207 3208 3209 3210 3210 3211 3211 3211 3211 3212 3214 3214 3214 3214 3213 3214 3215 3216 3217 3219 3220 3220 3220 3219 3219 3219 3219 3218 3218 3218 3218 3217 3217 3216 3216 3215 3215 3215 3215 3214 3213 3212 3211 3210 3209 3208 3207 3207 3206 3205 3204 3203 3202 3201 3201 3200 3199 3198
3180 3180 3181 3182 3183 3184 3184 3184 3184 3185 3185 3185 3185 3186 3188 3190 3192 3193 3194 3195 3195 3196 3197 3199 3201 3201 3202 3204 3205 3206 3206 3207 3208 3208 3208 3209 3210 3210 3211 3212 3211 3211 3212 3213 3214 3215 3216 3216 3216 3216 3216 3216 3216 3215 3215 3215 3215 3215 3214 3213 3213 3212 3212 3212 3212 3211 3211 3210 3209 3208 3207 3206 3205 3204 3204 3203 3202 3201 3200 3200 3199 3198 3197 3196 3196
3177 3178 3178 3179 3180 3181 3181 3182 3182 3183 3184 3184 3184 3184 3185 3186 3188 3190 3191 3192 3192 3193 3194 3196 3198 3199 3200 3201 3202 3203 3203 3204 3205 3206 3206 3207 3208 3208 3208 3209 3209 3210 3210 3211 3212 3213 3213 3213 3213 3213 3213 3213 3213 3213 3213 3212 3212 3211 3211 3210 3209 3209 3208 3208 3208 3207 3207 3206 3206 3205 3204 3203 3202 3201 3201 3200 3198 3197 3197 3197 3196 3195 3194 3193 3193
3175 3175 3176 3177 3178 3179 3180 3180 3180 3181 3182 3183 3183 3184 3184 3185 3187 3188 3190 3192 3192 3192 3192 3193 3194 3196 3198 3199 3199 3200 3201 3202 3203 3203 3204 3205 3206 3206 3206 3207 3207 3207 3208 3209 3209 3210 3210 3211 3211 3211 3211 3211 3211 3210 3210 3209 3209 3208 3207 3206 3205 3205 3204 3204 3204 3203 3203 3203 3202 3201 3200 3199 3198 3198 3197 3196 3195 3194 3194 3193 3192 3191 3191 3190 3189
3173 3173 3174 3176 3176 3177 3178 3178 3178 3179 3180 3181 3182 3183 3184 3185 3186 3187 3189 3191 3192 3193 3193 3193 3193 3194 3196 3197 3198 3199 3200 3200 3201 3201 3202 3203 3203 3204 3205 3205 3205 3205 3206 3207 3207 3208 3208 3208 3208 3209 3209 3208 3208 3207 3206 3206 3205 3204 3203 3202 3201 3201 3201 3200 3200 3199 3199 3198 3198 3197 3195 3195 3194 3194 3193 3192 3191 3191 3190 3190 3189 3188 3187 3187 3186
3172 3172 3173 3174 3174 3175 3176 3176 3177 3178 3179 3180 3181 3182 3183 3184 3185 3186 3187 3188 3190 3191 3192 3192 3193 3193 3194 3196 3197 3198 3199 3199 3200 3200 3201 3201 3201 3202 3203 3203 3203 3204 3204 3205 3205 3205 3206 3206 3206 3206 3205 3205 3204 3203 3202 3202 3201 3200 3199 3198 3197 3198 3198 3197 3196 3195 3195 3194 3194 3192 3191 3191 3190 3189 3189 3188 3188 3187 3186 3186 3185 3185 3184 3184 3183
3173 3172 3172 3172 3173 3174 3175 3175 3176 3177 3177 3178 3180 3181 3181 3182 3183 3184 3184 3185 3187 3188 3189 3189 3190 3191 3192 3194 3195 3196 3197 3197 3198 3198 3199 3199 3199 3200 3200 3201 3201 3201 3202 3202 3202 3203 3203 3203 3203 3202 3202 3202 3200 3199 3199 3198 3197 3196 3195 3195 3194 3195 3194 3193 3192 3191 3191 3190 3189 3188 3188 3187 3186 3186 3185 3185 3184 3184 3183 3183 3182 3182 3181 3181 3180
3173 3173 3172 3171 3172 3172 3173 3174 3175 3175 3176 3177 3178 3179 3180 3180 3181 3182 3183 3183 3184 3185 3186 3187 3188 3189 3190 3191 3192 3193 3194 3195 3195 3196 3196 3197 3197 3197 3198 3198 3199 3199 3199 3199 3199 3199 3199 3199 3199 3198 3198 3197 3196 3195 3195 3194 3193 3192 3192 3191 3190 3191 3190 3189 3188 3188 3187 3187 3186 3185 3184 3183 3183 3182 3182 3181 3181 3180 3180 3179 3179 3178 3178 3177 3177
3172 3173 3172 3172 3171 3172 3173 3173 3174 3174 3175 3176 3177 3177 3178 3179 3180 3181 3181 3182 3183 3184 3185 3185 3186 3187 3188 3189 3189 3190 3191 3191 3192 3193 3194 3194 3195 3195 3195 3196 3196 3196 3196 3196 3196 3195 3195 3195 3194 3194 3193 3193 3192 3191 3191 3190 3189 3189 3187 3186 3185 3186 3186 3185 3184 3184 3183 3183 3182 3181 3180 3180 3179 3179 3178 3178 3177 3177 3177 3176 3176 3175 3175 3174 3174
3172 3172 3172 3172 3172 3172 3172 3172 3173 3174 3174 3174 3175 3176 3177 3178 3179 3180 3180 3180 3181 3182 3183 3184 3185 3186 3186 3187 3187 3187 3188 3189 3189 3190 3190 3191 3191 3191 3192 3192 3192 3192 3192 3192 3191 3191 3191 3190 3189 3189 3188 3188 3188 3187 3187 3186 3186 3185 3183 3182 3181 3181 3181 3181 3180 3180 3179 3179 3178 3177 3176 3176 3176 3175 3175 3175 3175 3174 3174 3173 3173 3172 3172 3171 3170
3172 3172 3171 3172 3172 3172 3172 3172 3172 3173 3174 3174 3174 3175 3176 3177 3178 3178 3179 3179 3180 3180 3181 3182 3182 3183 3183 3184 3184 3184 3185 3185 3186 3186 3186 3187 3187 3187 3187 3187 3188 3188 3187 3187 3187 3186 3186 3185 3184 3184 3184 3183 3183 3183 3182 3182 3181 3181 3180 3179 3177 3177 3177 3177 3176 3175 3175 3174 3173 3172 3172 3172 3172 3171 3171 3171 3171 3171 3170 3170 3169 3168 3168 3167 3167
3171 3171 3171 3171 3172 3172 3172 3171 3171 3172 3173 3173 3173 3173 3174 3175 3175 3176 3176 3177 3177 3178 3178 3178 3179 3179 3180 3180 3181 3181 3182 3182 3182 3182 3183 3183 3183 3183 3183 3183 3183 3183 3183 3182 3182 3181 3181 3180 3179 3179 3179 3179 3179 3178 3178 3178 3177 3176 3176 3175 3174 3173 3173 3172 3171 3171 3170 3170 3169 3168 3168 3168 3168 3168 3168 3168 3168 3167 3167 3166 3165 3165 3164 3164 3163
3169 3170 3170 3170 3171 3171 3171 3171 3170 3171 3171 3171 3171 3171 3172 3173 3173 3173 3174 3174 3175 3175 3175 3176 3176 3176 3177 3177 3178 3178 3178 3178 3178 3179 3179 3179 3179 3179 3178 3178 3178 3178 3178 3178 3177 3177 3176 3176 3175 3175 3175 3175 3175 3174 3174 3173 3173 3172 3172 3171 3170 3169 3169 3168 3167 3166 3166 3166 3165 3165 3164 3164 3164 3165 3165 3165 3164 3163 3163 3162 3162 3161 3160 3160 3159
3167 3167 3168 3168 3169 3170 3170 3170 3169 3169 3169 3169 3169 3169 3169 3170 3170 3170 3171 3172 3172 3172 3173 3173 3173 3173 3174 3174 3174 3175 3175 3175 3175 3175 3175 3175 3175 3175 3174 3174 3174 3173 3173 3173 3172 3172 3172 3171 3172 3172 3172 3171 3171 3170 3170 3169 3169 3168 3168 3167 3166 3165 3164 3164 3163 3162 3162 3161 3161 3160 3160 3161 3161 3161 3161 3160 3160 3159 3159 3158 3157 3156 3155 3154 3153
3164 3164 3165 3166 3166 3167 3168 3167 3167 3167 3167 3167 3167 3167 3167 3167 3167 3167 3168 3168 3168 3169 3170 3170 3170 3171 3171 3171 3171 3171 3172 3171 3171 3171 3171 3171 3171 3170 3170 3170 3169 3168 3168 3168 3167 3167 3168 3168 3168 3168 3168 3167 3167 3166 3166 3165 3164 3164 3163 3162 3161 3161 3160 3159 3159 3159 3158 3157 3157 3157 3157 3157 3158 3157 3157 3156 3155 3154 3153 3152 3151 3150 3149 3148 3147
3161 3161 3161 3162 3163 3164 3164 3164 3164 3164 3165 3165 3165 3165 3165 3165 3165 3165 3164 3164 3164 3165 3165 3166 3167 3167 3167 3167 3168 3168 3167 3167 3167 3167 3167 3167 3167 3166 3166 3165 3164 3163 3163 3163 3163 3163 3164 3164 3164 3164 3163 3163 3162 3161 3161 3160 3160 3159 3159 3158 3157 3156 3155 3155 3155 3154 3154 3153 3153 3153 3153 3153 3153 3152 3151 3150 3149 3148 3147 3146 3145 3145 3144 3143 3142
3158 3158 3158 3158 3159 3160 3161 3161 3161 3162 3162 3162 3162 3162 3162 3162 3162 3162 3162 3161 3161 3161 3161 3161 3162 3162 3163 3163 3164 3164 3163 3163 3163 3163 3163 3163 3162 3162 3161 3160 3159 3159 3159 3159 3159 3159 3159 3159 3159 3159 3158 3158 3157 3157 3156 3156 3155 3155 3154 3154 3153 3151 3151 3150 3150 3150 3149 3149 3149 3149 3148 3148 3147 3146 3145 3144 3143 3143 3142 3141 3140 3139 3138 3137 3136
3153 3154 3154 3155 3155 3156 3157 3158 3158 3158 3158 3159 3159 3159 3159 3159 3159 3159 3159 3158 3158 3157 3157 3157 3157 3158 3158 3158 3159 3159 3159 3158 3158 3158 3159 3159 3158 3157 3156 3155 3155 3154 3155 3155 3155 3155 3155 3155 3155 3154 3154 3153 3152 3152 3152 3151 3151 3151 3150 3149 3148 3147 3146 3146 3145 3145 3145 3144 3144 3144 3143 3142 3141 3140 3139 3139 3138 3137 3136 3135 3134 3133 3132 3131 3130
3149 3150 3150 3151 3151 3152 3153 3154 3154 3155 3155 3155 3155 3155 3155 3155 3156 3156 3155 3155 3154 3154 3153 3153 3153 3153 3154 3154 3154 3154 3155 3154 3154 3153 3153 3153 3153 3152 3151 3150 3149 3150 3150 3150 3150 3150 3150 3151 3150 3150 3149 3148 3148 3147 3147 3147 3146 3146 3145 3144 3143 3142 3141 3141 3141 3140 3140 3139 3139 3138 3137 3136 3136 3135 3134 3133 3132 3131 3130 3129 3128 3127 3126 3125 3124
3145 3145 3146 3147 3147 3148 3149 3149 3150 3150 3151 3151 3151 3151 3151 3152 3152 3152 3152 3151 3150 3150 3150 3150 3149 3149 3149 3149 3149 3150 3150 3150 3150 3149 3149 3148 3149 3148 3146 3145 3145 3145 3146 3146 3146 3146 3146 3146 3145 3145 3145 3144 3143 3142 3142 3141 3141 3140 3140 3139 3138 3137 3136 3136 3135 3135 3134 3134 3133 3132 3131 3131 3130 3129 3128 3127 3126 3126 3125 3124 3123 3121 3120 3119 3118
3140 3141 3142 3142 3143 3143 3144 3145 3145 3146 3146 3146 3146 3147 3147 3148 3148 3148 3148 3147 3147 3146 3146 3145 3145 3145 3145 3145 3145 3145 3146 3146 3146 3146 3145 3145 3144 3143 3143 3142 3142 3141 3141 3142 3141 3142 3142 3141 3141 3140 3140 3139 3138 3138 3137 3136 3135 3134 3134 3134 3133 3132 3131 3130 3129 3129 3128 3128 3127 3127 3126 3125 3124 3122 3121 3121 3120 3120 3119 3118 3117 3116 3114 3113 3112
3136 3137 3137 3137 3138 3138 3139 3140 3140 3141 3141 3141 3142 3142 3143 3144 3144 3143 3143 3143 3143 3142 3142 3142 3141 3141 3141 3140 3141 3141 3141 3141 3141 3141 3141 3141 3140 3139 3139 3139 3138 3137 3137 3137 3137 3136 3136 3137 3136 3136 3135 3134 3134 3133 3132 3131 3130 3129 3129 3128 3128 3127 3126 3125 3124 3124 3123 3122 3121 3120 3119 3118 3117 3116 3115 3114 3114 3113 3112 3112 3111 3110 3108 3107 3106
3131 3132 3132 3133 3133 3134 3135 3135 3135 3136 3135 3136 3137 3138 3139 3140 3139 3139 3139 3139 3139 3138 3138 3138 3137 3137 3136 3136 3136 3136 3136 3137 3137 3137 3136 3136 3135 3134 3134 3134 3133 3132 3132 3132 3132 3132 3131 3131 3131 3131 3130 3129 3128 3127 3127 3126 3125 3125 3124 3123 3122 3121 3121 3120 3119 3119 3118 3117 3116 3115 3113 3112 3111 3111 3110 3109 3108 3107 3106 3106 3105 3104 3103 3101 3100
3126 3127 3128 3128 3129 3130 3130 3130 3130 3130 3131 3131 3132 3134 3135 3135 3135 3135 3135 3135 3135 3134 3134 3133 3133 3132 3132 3131 3131 3131 3131 3131 3131 3131 3131 3131 3130 3129 3129 3128 3128 3127 3127 3127 3126 3126 3126 3126 3125 3125 3124 3123 3122 3121 3121 3120 3120 3119 3118 3117 3116 3116 3115 3115 3114 3113 3112 3111 3110 3109 3107 3107 3106 3105 3105 3104 3103 3102 3101 3100 3099 3098 3097 3095 3094
3122 3123 3123 3123 3124 3124 3125 3125 3125 3125 3126 3127 3128 3129 3129 3130 3130 3130 3130 3130 3130 3130 3130 3129 3129 3128 3127 3126 3126 3125 3125 3125 3125 3125 3126 3126 3125 3125 3124 3123 3122 3122 3122 3121 3121 3121 3120 3120 3119 3119 3118 3117 3116 3116 3115 3115 3114 3113 3112 3111 3110 3110 3109 3109 3108 3107 3106 3105 3104 3102 3102 3101 3100 3100 3099 3098 3097 3096 3095 3094 3093 3091 3090 3089 3088
3118 3118 3118 3119 3119 3119 3119 3119 3120 3121 3122 3122 3122 3122 3123 3124 3124 3124 3125 3125 3125 3125 3124 3124 3124 3124 3123 3122 3122 3121 3120 3120 3120 3121 3120 3120 3120 3119 3119 3118 3118 3117 3117 3117 3116 3116 3115 3114 3113 3112 3112 3111 3110 3110 3110 3109 3109 3108 3107 3106 3105 3104 3103 3103 3102 3101 3100 3099 3098 3097 3096 3095 3095 3094 3093 3091 3090 3090 3089 3087 3086 3085 3084 3083 3082
3113 3114 3114 3114 3114 3113 3113 3114 3115 3116 3116 3117 3117 3117 3117 3118 3118 3118 3118 3119 3119 3119 3119 3120 3119 3119 3118 3117 3117 3116 3116 3116 3116 3116 3115 3114 3114 3114 3114 3114 3113 3113 3112 3111 3111 3110 3109 3108 3107 3106 3106 3105 3105 3104 3103 3103 3102 3102 3101 3100 3099 3098 3098 3097 3096 3094 3093 3092 3091 3091 3090 3089 3088 3087 3086 3085 3084 3083 3082 3081 3080 3079 3078 3077 3076
3109 3109 3109 3109 3109 3109 3109 3110 3110 3110 3110 3111 3112 3112 3112 3113 3113 3113 3112 3112 3113 3113 3113 3114 3114 3113 3113 3112 3111 3111 3111 3111 3111 3110 3110 3109 3109 3109 3109 3109 3108 3107 3107 3106 3105 3104 3103 3102 3101 3101 3100 3099 3099 3098 3097 3097 3096 3096 3095 3094 3093 3093 3092 3091 3090 3088 3087 3087 3086 3085 3084 3083 3082 3081 3080 3079 3078 3077 3076 3075 3074 3073 3072 3071 3070
3104 3104 3104 3105 3105 3105 3105 3106 3106 3106 3106 3106 3107 3107 3108 3108 3108 3108 3108 3108 3108 3107 3107 3107 3107 3107 3107 3107 3106 3106 3106 3106 3105 3105 3105 3105 3105 3105 3104 3103 3103 3102 3101 3100 3100 3099 3098 3096 3096 3095 3094 3093 3093 3092 3091 3091 3090 3090 3089 3088 3087 3087 3086 3085 3084 3083 3082 3081 3080 3079 3078 3077 3076 3075 3074 3074 3073 3072 3071 3070 3069 3068 3066 3065 3064
3099 3099 3100 3100 3100 3101 3100 3100 3100 3100 3101 3101 3102 3102 3102 3103 3103 3103 3103 3103 3103 3103 3102 3102 3102 3101 3102 3102 3102 3101 3101 3101 3100 3100 3100 3100 3100 3099 3099 3098 3097 3096 3095 3095 3094 3093 3092 3091 3090 3089 3089 3088 3087 3086 3086 3085 3084 3084 3083 3083 3082 3081 3080 3079 3078 3077 3076 3075 3075 3074 3073 3072 3071 3070 3069 3068 3067 3066 3065 3064 3063 3061 3060 3059 3057